Home   Weather   Hohhot   Past weeks

Flag for China Past Weather in Hohhot, Inner Mongolia, China — Yesterday and Last 2 Weeks

Now
55 °F

Clear.


Feels Like: 55 °F
Forecast: 53 / 66 °F
Wind: 3 mph from Northeast

Location: Hohhot Airport

Current Time: May 1, 2017 at 12:41:42 am

Latest Report: May 1, 2017 at 12:00 am


Visibility: 10 mi

Pressure: 29.92 "Hg (26.38 "Hg at 1053m altitude)

Humidity: 26%

Dew Point: 21 °F

Location of HohhotLocation

Past Weather in Hohhot — Graph

°F

Hohhot Temperature Yesterday

Maximum temperature yesterday: 82 °F (at 3:00 pm)
Minimum temperature yesterday: 48 °F (at 3:00 am)
Average temperature yesterday: 65 °F

High & Low Weather Summary for the Past Weeks

 TemperatureHumidityPressure
High82 °F (Apr 30, 3:00 pm)87% (Apr 20, 1:00 pm)30.36 "Hg (Apr 20, 1:00 pm)
Low30 °F (Apr 22, 6:00 am)7% (Apr 22, 3:00 pm)29.56 "Hg (Apr 17, 2:00 pm)
Average53 °F26%29.96 "Hg
* Reported Apr 15 11:00 pm — Apr 30 11:00 pm, Hohhot, Weather by CustomWeather, © 2017

Note: Actual official high and low records may vary slightly from our data, if they occured in-between our weather recording intervals... More about our weather records

Advertising

Hohhot Weather History for the Previous 24 Hours

Scroll right to see more
 ConditionsComfort  
Time TempWeatherWind HumidityBarometerVisibility
11:00 pm
Sun, Apr 30
57 °FPassing clouds.6 mph25%29.92 "HgN/A
10:00 pm63 °FPassing clouds.1 mph19%29.92 "HgN/A
9:00 pm64 °FPassing clouds.6 mph19%29.89 "HgN/A
8:00 pm70 °FPassing clouds.8 mph13%29.86 "HgN/A
7:00 pm72 °FScattered clouds.3 mph13%29.83 "HgN/A
6:00 pm77 °FScattered clouds.13 mph9%29.83 "HgN/A
5:00 pm77 °FScattered clouds.1 mph9%29.83 "HgN/A
4:00 pm79 °FScattered clouds.8 mph9%29.80 "HgN/A
3:00 pm82 °FPassing clouds.8 mph8%29.83 "HgN/A
2:00 pm81 °FPassing clouds.8 mph9%29.83 "HgN/A
1:00 pm79 °FPassing clouds.6 mph8%29.86 "HgN/A
12:00 pm79 °FPassing clouds.3 mph9%29.86 "HgN/A
11:00 am75 °FPassing clouds.6 mph9%29.89 "HgN/A
10:00 am73 °FSunny.3 mph11%29.89 "Hg10 mi
9:00 am70 °FSunny.1 mph17%29.89 "Hg10 mi
8:00 am63 °FPassing clouds.3 mph20%29.89 "HgN/A
7:00 am52 °FSunny.3 mph30%29.89 "Hg10 mi
6:00 am48 °FSunny.6 mph32%29.86 "Hg10 mi
5:00 am48 °FClear.3 mph29%29.86 "Hg10 mi
4:00 am52 °FClear.3 mph24%29.83 "Hg10 mi
3:00 am48 °FClear.1 mph27%29.83 "Hg10 mi
2:00 am50 °FClear.6 mph28%29.83 "Hg10 mi
1:00 am55 °FClear.8 mph21%29.83 "Hg10 mi
12:00 am55 °FClear.6 mph23%29.83 "Hg10 mi
Weather by CustomWeather, © 2017

See weather overviewHow to use our weather pages